Airfield :
LOGIN :

Register | Disclaimer

   EN    FR    IT 

 










Legend :    VFR   Marginal VFR   IFR   Intensive IFR   Very Intensive IFR
Visi :
Ceiling :
>= 8 km
>= 3000ft
5 to 8 km
1000 to 3000 ft
1500m to 5 km
500 to 1000 ft
800 to 1500m
200 to 500 ft
< 800m
< 200 ft
Symbols :   Thunderstorms  Fog  Heavy snow  Heavy precipitations  Wind > 20 kt
SIGMETs :     Misc.  Thunderstorms  Icing  Turbulence  Mountain Waves  Volcanic Ashes







- Airport Elevation : 162 ft
- IATA code : BOD
- Download approach charts


LFBD - Bordeaux / Merignac

CURRENT METAR :
  • 181700Z AUTO VRB03KT CAVOK 20/13 Q1015 NOSIG

EXPIRED METARs :
  • 181630Z AUTO 04004KT 360V070 CAVOK 21/13 Q1015 NOSIG
  • 181600Z AUTO 01004KT CAVOK 21/13 Q1015 NOSIG
  • 181530Z AUTO 04006KT CAVOK 21/13 Q1015 NOSIG
  • 181500Z AUTO 04007KT CAVOK 21/13 Q1015 NOSIG
  • 181430Z AUTO 01007KT 330V050 CAVOK 21/12 Q1015 NOSIG

TAF TAF LFBD
Valid from the 18 at 18:00 until the 20 at 00:00 UTC


181700Z 1818/1924 01005KT CAVOK TX23/1914Z TN12/1906Z
PROB30
TEMPO 1902/1908 0800 BCFG
ATIS : +33 5 57 92 81 04
No reported NOTAMs for that airfield.



MET'MAP, your aeronautical weather chart ! - Copyright ORBIFLY December 2007 - Disclaimer

ORBIFLY MET'MAP TEAM :

Programming & Development : Alexandra Zaïnal
Concept & Development : Baudouin d'Aumeries
Co-Development & Prog : Marc-Olivier Méhu
Technical & hardware support : Manuel Goepfert

Contact : metmap@orbifly.com




SOURCES & CREDITS :

   NOAA